This demonstration page uses our WeatherBlox Daily Observations layout. Learn more.

41.55636, -103.73856

Hourly Observations for October 18, 2016

Temp ( °F °C ) Dew Point ( °F °C ) Humidity (%) Winds ( mph kmh ) Pressure ( in mb ) Visibility ( mi km ) Precip ( " mm )
12:53 am 00:53 Clear 41 5 28 -2.2 60 60 SW 9 15 29.85 1011 10 16.0934 0 0
1:53 am 01:53 Clear 40 4.4 25 -3.9 55 55 undefined N/A 29.88 1012 10 16.0934 0 0
2:53 am 02:53 Clear 38 3.3 24 -4.4 57 57 W 5 7 29.9 1013 10 16.0934 0 0
3:53 am 03:53 Clear 33 0.6 23 -5 66 66 E 3 6 29.93 1014 10 16.0934 0 0
4:53 am 04:53 Clear 34 1.1 24 -4.4 67 67 undefined N/A 29.94 1014 10 16.0934 0 0
5:53 am 05:53 Clear 31 -0.6 22 -5.6 69 69 Calm 29.98 1015 10 16.0934 0 0
6:53 am 06:53 Clear 29 -1.7 22 -5.6 75 75 E 5 7 30 1016 10 16.0934 0 0
7:53 am 07:53 Sunny 34 1.1 24 -4.4 67 67 Calm 30.01 1016 10 16.0934 0 0
8:53 am 08:53 Sunny 44 6.7 26 -3.3 49 49 Calm 30.01 1016 10 16.0934 0 0
9:53 am 09:53 Sunny 53 11.7 26 -3.3 35 35 WNW 8 13 29.99 1016 10 16.0934 0 0
10:53 am 10:53 Sunny 57 13.9 24 -4.4 28 28 W 13 20 29.98 1015 10 16.0934 0 0
11:53 am 11:53 Sunny 61 16.1 22 -5.6 22 22 WNW 14 22 29.96 1015 10 16.0934 0 0
12:53 pm 12:53 Mostly Sunny 63 17.2 18 -7.8 17 17 W 9 15 29.94 1014 10 16.0934 0 0
1:53 pm 13:53 Sunny 64 17.8 18 -7.8 17 17 VRB 7 11 29.92 1013 10 16.0934 0 0
2:53 pm 14:53 Sunny 65 18.3 17 -8.3 16 16 WSW 9 15 29.9 1012 10 16.0934 0 0
3:53 pm 15:53 Sunny 64 17.8 17 -8.3 16 16 WNW 8 13 29.92 1013 10 16.0934 0 0
4:53 pm 16:53 Partly Cloudy 61 16.1 18 -7.8 19 19 Calm 29.93 1013 10 16.0934 0 0
5:53 pm 17:53 Cloudy 57 13.9 18 -7.8 22 22 Calm 29.96 1015 10 16.0934 0 0
6:53 pm 18:53 Mostly Cloudy 58 14.4 24 -4.4 27 27 NW 7 11 29.99 1016 10 16.0934 0 0
7:53 pm 19:53 Cloudy 57 13.9 25 -3.9 29 29 W 10 17 30.02 1017 10 16.0934 0 0
8:53 pm 20:53 Cloudy 55 12.8 30 -1.1 38 38 WSW 10 17 30.04 1017 10 16.0934 0 0
9:53 pm 21:53 Cloudy with Light Rain 47 8.3 40 4.4 77 77 WNW 8 13 30.05 1018 8 12.87472 0.03 0.762
10:53 pm 22:53 Cloudy with Light Rain 47 8.3 41 5 80 80 NW 12 19 30.05 1018 8 12.87472 0.02 0.508
11:53 pm 23:53 Cloudy with Light Rain 45 7.2 44 6.7 97 97 Calm 30.08 1019 6 9.65604 0.06 1.524

Powered by AerisWeather